Regional Weather Roundup
Issued by NWS Goodland, KS

Home | Current Version | Previous Version | Graphics & Text | Print | Product List | Glossary On
Versions: 1 2 3 4 5 6 7 8 9 10 11 12 13 14 15 16 17 18 19 20 21 22 23 24 25 26 27 28 29 30 31 32 33 34 35 36 37 38 39 40 41 42 43 44 45 46 47 48 49 50
000
ASUS43 KGLD 240908
RWRGLD

GOODLAND FORECAST AREA HOURLY WEATHER ROUNDUP
NATIONAL WEATHER SERVICE GOODLAND KS
300 AM MDT SAT JUN 24 2017

...OFFICIAL OBSERVATIONS...

CITY           SKY/WX    TMP DP  RH WIND       PRES   REMARKS
GOODLAND KS    CLEAR     54  49  83 CALM      30.25F
HILL CITY KS   CLEAR     52  48  86 N5        30.22S
IMPERIAL NEB   CLOUDY    53  45  74 N7        30.26F
MCCOOK NEB     CLOUDY    50  46  86 N5        30.24S
AKRON CO       PTCLDY    54  35  48 E7        30.29F
BURLINGTON CO  CLEAR     50  47  89 W7        30.27F
LIMON CO       CLOUDY    53  44  71 CALM      30.32F
$$

...UNOFFICIAL OBSERVATIONS...

CITY           SKY/WX    TMP DP  RH WIND       PRES   REMARKS
LENORA KS        N/A     58  32  37 MISG        N/A
NORTON KS      CLEAR     48  39  71 W5        30.21S
SHARON SPRINGS   N/A     54  49  83 W6          N/A
TRENTON NEB      N/A     53  32  45 CALM        N/A
KIT CARSON CO    N/A     53  45  75 CALM        N/A
YUMA CO        FAIR      50  41  71 CALM      30.27F
$$




USA.gov is the U.S. government's official web portal to all federal, state and local government web resources and services.